Content
SEND FEEDBACK

Daily
Averages
Monthly
Summary
United States of America

BERKELEY, MISSOURI


Home > North America > United States > Missouri
Elevation: 564 feet     Latitude: 38 45N     Longitude: 090 22W

WEATHER
 
SELECT A DAY
Number of Records: 203,416;   Date Range: 1/1/95 - 7/26/14
 
SHARE

PRINT THIS DATA

[ ← Previous Day ]
WEATHER ALMANAC - JANUARY 19, 2013
[ Next Day → ]
[ °C ]   °F
Weather ElementAverageHighLow
Temperature52 °F64.9 °F (2:51 pm)43 °F (1:51 am)
Dewpoint28.8 °F32 °F (1:51 pm)25 °F (2:51 am)
Humidity41.8 %54 % (10:51 pm)29 % (2:51 pm)
Barometer30.04 in30.14 in (1:51 am)29.93 in (1:51 pm)
Wind Speed13.8 mph23 mph (10:51 am)
Wind Gust28.8 mph (10:51 am)
Weather ElementAverage
Visibility10 mi
Wind DirectionWSW (241.3 °)

Weather ElementTotal
Precipitation---
Heating Degree Days11.1 (Base 65)
Growing Degree Days4 (Base 50)
Averaged from 23 records on January 19, 2013
WEATHER CONDITIONS BREAKOUT
WIND DIRECTION BREAKOUT
WEATHER BY HOUR - JANUARY 19, 2013
[ °C ]   °F
Local TimeTemperatureDewpointHumidityBarometerVisibilityWind DirectionWind SpeedGust SpeedPrecipitationEventsConditions
1:51 AM43.0 °F26.1 °F51 %30.14 in10.0 miSSW (210°)11.5 mphClear
2:51 AM43.0 °F25.0 °F49 %30.13 in10.0 miSSW (200°)13.8 mphClear
3:51 AM43.0 °F25.0 °F49 %30.11 in10.0 miSSW (200°)13.8 mphClear
4:51 AM43.0 °F25.0 °F49 %30.09 in10.0 miSSW (210°)13.8 mphClear
5:51 AM43.0 °F25.0 °F49 %30.08 in10.0 miSSW (210°)13.8 mphClear
6:51 AM43.0 °F25.0 °F49 %30.07 in10.0 miSSW (200°)13.8 mphClear
7:51 AM43.0 °F25.0 °F49 %30.07 in10.0 miSouth (190°)12.7 mphClear
8:51 AM48.0 °F26.1 °F42 %30.06 in10.0 miSSW (200°)11.5 mphPartly Cloudy
9:51 AM54.0 °F28.0 °F37 %30.06 in10.0 miSW (220°)15.0 mphPartly Cloudy
10:51 AM57.0 °F28.9 °F34 %30.02 in10.0 miSW (230°)23.0 mph28.8 mphPartly Cloudy
11:51 AM60.1 °F30.0 °F32 %29.98 in10.0 miWSW (240°)17.3 mph27.6 mphPartly Cloudy
12:51 PM63.0 °F30.9 °F30 %29.94 in10.0 miWSW (250°)19.6 mphPartly Cloudy
1:51 PM64.0 °F32.0 °F30 %29.93 in10.0 miWSW (250°)18.4 mph25.3 mphPartly Cloudy
2:51 PM64.9 °F32.0 °F29 %29.93 in10.0 miWest (260°)15.0 mph25.3 mphScattered Clouds
3:51 PM64.0 °F32.0 °F30 %29.94 in10.0 miWest (270°)10.4 mphPartly Cloudy
4:51 PM61.0 °F30.9 °F32 %29.96 in10.0 miWest (260°)12.7 mphPartly Cloudy
5:51 PM55.0 °F30.9 °F40 %29.99 in10.0 miWSW (250°)9.2 mphClear
6:51 PM53.1 °F30.9 °F43 %30.02 in10.0 miWest (260°)8.1 mphClear
7:51 PM54.0 °F30.9 °F41 %30.05 in10.0 miWest (270°)12.7 mphClear
8:51 PM54.0 °F32.0 °F43 %30.06 in10.0 miWest (280°)13.8 mphClear
9:51 PM51.1 °F30.9 °F46 %30.09 in10.0 miWNW (290°)13.8 mph25.3 mphClear
10:51 PM46.9 °F30.9 °F54 %30.12 in10.0 miWNW (300°)10.4 mphClear
11:51 PM46.0 °F30.0 °F54 %30.13 in10.0 miWNW (300°)12.7 mph19.6 mphClear
Hourly data recorded from KSTL, located miles away from Berkeley, Missouri







STORIES FROM OUR PARTNERS